QPF
0.05 0.07 0.05 0.09 0.15 0.09 0.06 0.05 0.04 0.05 0.04 0.03 0.03 0.04 0.05 0.04 0.03 0.04 0.05 0.05 0.05 0.04 0.05 0.05 0.05 0.07 0.07 0.07 0.07 0.04 0.04 0.04 0.04 0.04 0.05 0.05 0.04 0.04 0.04 0.05 0.08 0.08 0.06
0.04 0.05 0.03 0.05 0.09 0.07 0.07 0.07 0.06 0.05 0.04 0.04 0.04 0.05 0.06 0.05 0.04 0.05 0.05 0.04 0.04 0.04 0.06 0.06 0.05 0.05 0.06 0.09 0.08 0.05 0.04 0.03 0.03 0.04 0.03 0.03 0.03 0.03 0.04 0.05 0.08 0.08 0.07
0.03 0.05 0.04 0.04 0.05 0.05 0.07 0.09 0.08 0.05 0.04 0.04 0.04 0.04 0.06 0.05 0.04 0.04 0.05 0.05 0.06 0.06 0.06 0.07 0.07 0.06 0.05 0.07 0.07 0.05 0.04 0.03 0.04 0.07 0.08 0.08 0.04 0.02 0.03 0.05 0.06 0.06 0.05
0.03 0.05 0.05 0.03 0.05 0.05 0.07 0.14 0.13 0.07 0.05 0.04 0.04 0.04 0.05 0.05 0.04 0.04 0.05 0.06 0.08 0.08 0.06 0.06 0.05 0.06 0.05 0.06 0.06 0.04 0.04 0.03 0.04 0.08 0.11 0.10 0.05 0.03 0.04 0.05 0.06 0.06 0.05
0.04 0.05 0.04 0.05 0.10 0.06 0.08 0.11 0.11 0.07 0.05 0.04 0.04 0.06 0.07 0.05 0.04 0.05 0.06 0.07 0.08 0.09 0.09 0.07 0.06 0.06 0.07 0.07 0.06 0.05 0.04 0.04 0.04 0.05 0.06 0.08 0.06 0.05 0.04 0.04 0.05 0.06 0.07
0.04 0.05 0.03 0.05 0.10 0.10 0.10 0.10 0.09 0.07 0.05 0.05 0.07 0.14 0.14 0.09 0.05 0.06 0.07 0.07 0.07 0.08 0.10 0.09 0.08 0.08 0.07 0.06 0.06 0.07 0.05 0.04 0.05 0.07 0.07 0.08 0.07 0.06 0.04 0.04 0.04 0.05 0.05
0.03 0.04 0.03 0.08 0.11 0.13 0.12 0.11 0.11 0.11 0.09 0.08 0.13 0.16 0.13 0.12 0.07 0.07 0.07 0.06 0.07 0.08 0.08 0.08 0.07 0.06 0.05 0.06 0.06 0.07 0.06 0.05 0.06 0.09 0.09 0.08 0.07 0.04 0.04 0.03 0.03 0.03 0.03
0.02 0.02 0.02 0.06 0.10 0.13 0.15 0.15 0.13 0.14 0.15 0.12 0.15 0.14 0.13 0.11 0.07 0.06 0.07 0.06 0.07 0.07 0.07 0.07 0.05 0.05 0.07 0.06 0.06 0.05 0.04 0.04 0.05 0.07 0.06 0.04 0.04 0.03 0.03 0.03 0.03 0.02 0.03
0.02 0.02 0.03 0.04 0.06 0.08 0.09 0.10 0.10 0.24 0.28 0.19 0.16 0.13 0.11 0.08 0.07 0.07 0.08 0.08 0.08 0.07 0.06 0.05 0.05 0.06 0.06 0.06 0.06 0.04 0.03 0.04 0.05 0.07 0.05 0.03 0.03 0.02 0.03 0.04 0.03 0.03 0.03
0.02 0.02 0.04 0.06 0.07 0.09 0.08 0.06 0.07 0.14 0.24 0.19 0.13 0.12 0.11 0.09 0.09 0.09 0.08 0.10 0.10 0.08 0.06 0.06 0.08 0.08 0.07 0.06 0.05 0.03 0.03 0.04 0.04 0.04 0.03 0.03 0.02 0.02 0.02 0.02 0.03 0.03 0.03
0.02 0.03 0.04 0.04 0.04 0.04 0.04 0.03 0.08 0.13 0.20 0.24 0.14 0.12 0.11 0.12 0.12 0.12 0.12 0.14 0.13 0.12 0.10 0.09 0.11 0.10 0.08 0.07 0.07 0.06 0.05 0.04 0.04 0.04 0.04 0.03 0.02 0.02 0.02 0.02 0.02 0.03 0.03
0.03 0.03 0.03 0.02 0.02 0.02 0.02 0.03 0.11 0.12 0.19 0.26 0.14 0.11 0.12 0.15 0.17 0.18 0.19 0.19 0.19 0.17 0.13 0.13 0.10 0.08 0.08 0.09 0.08 0.06 0.05 0.03 0.03 0.03 0.02 0.02 0.02 0.02 0.02 0.02 0.03 0.04 0.05
0.02 0.03 0.02 0.02 0.02 0.02 0.02 0.03 0.09 0.17 0.22 0.17 0.10 0.09 0.10 0.13 0.17 0.20 0.20 0.19 0.18 0.18 0.16 0.16 0.10 0.06 0.06 0.07 0.07 0.06 0.05 0.03 0.03 0.03 0.03 0.02 0.02 0.02 0.04 0.04 0.05 0.05 0.06
0.02 0.01 0.01 0.01 0.01 0.01 0.02 0.03 0.05 0.07 0.09 0.08 0.09 0.08 0.08 0.10 0.09 0.13 0.16 0.17 0.19 0.21 0.20 0.18 0.11 0.08 0.06 0.04 0.04 0.04 0.04 0.03 0.03 0.04 0.04 0.03 0.02 0.02 0.04 0.06 0.07 0.06 0.04
0.01 0.01 0.01 0.01 0.01 0.01 0.02 0.03 0.04 0.05 0.06 0.06 0.06 0.07 0.07 0.07 0.07 0.09 0.10 0.11 0.13 0.18 0.17 0.13 0.08 0.08 0.07 0.07 0.05 0.03 0.02 0.03 0.04 0.04 0.04 0.04 0.04 0.04 0.04 0.06 0.05 0.04 0.03
0.00 0.01 0.01 0.01 0.01 0.02 0.03 0.04 0.04 0.03 0.04 0.04 0.04 0.04 0.04 0.06 0.08 0.07 0.07 0.07 0.08 0.08 0.06 0.06 0.06 0.09 0.08 0.07 0.04 0.02 0.01 0.02 0.03 0.05 0.06 0.06 0.06 0.05 0.05 0.06 0.05 0.04 0.04
0.01 0.01 0.01 0.01 0.01 0.02 0.03 0.03 0.03 0.03 0.03 0.03 0.03 0.03 0.04 0.05 0.07 0.08 0.07 0.06 0.06 0.06 0.06 0.06 0.10 0.09 0.07 0.05 0.04 0.03 0.03 0.02 0.03 0.04 0.06 0.08 0.09 0.08 0.07 0.06 0.05 0.05 0.06
0.01 0.01 0.01 0.01 0.01 0.02 0.03 0.04 0.04 0.04 0.04 0.05 0.05 0.04 0.04 0.05 0.06 0.07 0.08 0.09 0.08 0.07 0.09 0.09 0.10 0.09 0.08 0.06 0.06 0.06 0.05 0.06 0.05 0.05 0.06 0.08 0.09 0.09 0.07 0.05 0.05 0.06 0.06
0.01 0.01 0.01 0.01 0.01 0.02 0.03 0.04 0.04 0.04 0.04 0.05 0.06 0.07 0.06 0.05 0.05 0.07 0.06 0.08 0.09 0.09 0.09 0.08 0.10 0.11 0.10 0.10 0.09 0.08 0.07 0.06 0.06 0.04 0.05 0.09 0.10 0.09 0.10 0.06 0.06 0.07 0.06
0.01 0.00 0.01 0.01 0.01 0.01 0.02 0.04 0.05 0.04 0.03 0.03 0.06 0.06 0.05 0.05 0.05 0.05 0.07 0.08 0.08 0.08 0.08 0.08 0.10 0.10 0.10 0.09 0.07 0.07 0.06 0.04 0.05 0.04 0.05 0.07 0.07 0.08 0.09 0.07 0.08 0.07 0.05
0.01 0.00 0.01 0.01 0.02 0.02 0.02 0.03 0.03 0.03 0.03 0.02 0.04 0.06 0.05 0.05 0.05 0.06 0.08 0.10 0.11 0.10 0.08 0.08 0.10 0.10 0.08 0.08 0.09 0.08 0.07 0.06 0.05 0.05 0.07 0.07 0.07 0.08 0.09 0.09 0.10 0.10 0.06
0.01 0.01 0.02 0.02 0.03 0.02 0.02 0.02 0.02 0.02 0.02 0.02 0.03 0.07 0.06 0.05 0.05 0.06 0.07 0.10 0.12 0.11 0.08 0.09 0.10 0.10 0.09 0.09 0.12 0.13 0.13 0.12 0.09 0.09 0.10 0.10 0.10 0.10 0.11 0.09 0.09 0.12 0.11
0.00 0.00 0.01 0.01 0.02 0.02 0.02 0.02 0.02 0.02 0.02 0.02 0.02 0.06 0.07 0.05 0.03 0.04 0.06 0.09 0.12 0.08 0.09 0.09 0.08 0.09 0.09 0.10 0.12 0.13 0.13 0.13 0.12 0.11 0.10 0.10 0.12 0.13 0.13 0.13 0.12 0.12 0.12
0.00 0.00 0.00 0.01 0.01 0.02 0.03 0.03 0.03 0.03 0.03 0.03 0.03 0.05 0.07 0.06 0.03 0.03 0.05 0.08 0.10 0.08 0.09 0.07 0.08 0.11 0.11 0.10 0.10 0.11 0.11 0.11 0.12 0.12 0.12 0.12 0.13 0.14 0.14 0.14 0.13 0.13 0.10
0.00 0.00 0.00 0.00 0.00 0.01 0.02 0.03 0.03 0.03 0.03 0.03 0.03 0.05 0.07 0.06 0.04 0.03 0.04 0.07 0.09 0.08 0.08 0.07 0.09 0.10 0.09 0.09 0.10 0.11 0.11 0.13 0.12 0.12 0.10 0.10 0.11 0.13 0.12 0.13 0.12 0.11 0.10
0.00 0.00 0.00 0.00 0.00 0.01 0.02 0.03 0.03 0.04 0.05 0.05 0.05 0.05 0.08 0.07 0.05 0.03 0.03 0.05 0.05 0.06 0.06 0.06 0.08 0.09 0.10 0.10 0.12 0.11 0.12 0.13 0.12 0.11 0.09 0.10 0.11 0.10 0.08 0.08 0.08 0.08 0.07
MSLP
1010.04 1009.67 1009.39 1009.29 1009.37 1009.59 1009.85 1010.09 1010.23 1010.26 1010.19 1010.07 1009.99 1009.99 1010.11 1010.34 1010.64 1010.96 1011.24 1011.43 1011.51 1011.49 1011.42 1011.32 1011.25 1011.22 1011.27 1011.36 1011.51 1011.69 1011.90 1012.16 1012.47 1012.85 1013.32 1013.85 1014.44 1015.03 1015.58 1016.06 1016.43 1016.69 1016.84
1010.03 1009.76 1009.60 1009.62 1009.79 1010.06 1010.33 1010.55 1010.64 1010.61 1010.48 1010.34 1010.24 1010.24 1010.36 1010.59 1010.89 1011.20 1011.46 1011.63 1011.71 1011.72 1011.68 1011.64 1011.64 1011.68 1011.77 1011.91 1012.06 1012.24 1012.42 1012.65 1012.92 1013.27 1013.70 1014.20 1014.75 1015.31 1015.82 1016.26 1016.60 1016.83 1016.95
1009.83 1009.67 1009.65 1009.80 1010.08 1010.42 1010.73 1010.94 1011.01 1010.95 1010.80 1010.64 1010.54 1010.55 1010.67 1010.89 1011.16 1011.43 1011.65 1011.78 1011.85 1011.86 1011.86 1011.88 1011.95 1012.06 1012.21 1012.38 1012.55 1012.71 1012.88 1013.06 1013.30 1013.61 1014.00 1014.47 1014.98 1015.50 1015.98 1016.39 1016.70 1016.90 1017.01
1009.49 1009.46 1009.59 1009.88 1010.27 1010.69 1011.04 1011.26 1011.33 1011.26 1011.12 1010.98 1010.90 1010.91 1011.04 1011.24 1011.47 1011.69 1011.85 1011.94 1011.98 1012.00 1012.03 1012.11 1012.23 1012.41 1012.61 1012.80 1012.97 1013.11 1013.24 1013.39 1013.58 1013.85 1014.21 1014.64 1015.11 1015.60 1016.05 1016.42 1016.71 1016.91 1017.02
1009.12 1009.22 1009.49 1009.91 1010.41 1010.89 1011.28 1011.51 1011.59 1011.54 1011.42 1011.31 1011.26 1011.31 1011.44 1011.62 1011.82 1011.98 1012.08 1012.13 1012.15 1012.17 1012.23 1012.35 1012.53 1012.75 1012.98 1013.17 1013.33 1013.43 1013.52 1013.61 1013.75 1013.98 1014.30 1014.69 1015.13 1015.59 1016.01 1016.37 1016.65 1016.84 1016.97
1008.85 1009.07 1009.46 1009.98 1010.55 1011.07 1011.48 1011.72 1011.80 1011.77 1011.68 1011.61 1011.61 1011.69 1011.84 1012.02 1012.18 1012.30 1012.36 1012.37 1012.37 1012.40 1012.49 1012.64 1012.86 1013.10 1013.33 1013.50 1013.61 1013.67 1013.69 1013.72 1013.81 1013.99 1014.27 1014.63 1015.05 1015.47 1015.87 1016.22 1016.49 1016.70 1016.85
1008.76 1009.08 1009.56 1010.14 1010.74 1011.27 1011.66 1011.88 1011.95 1011.93 1011.87 1011.85 1011.89 1012.01 1012.18 1012.36 1012.51 1012.59 1012.62 1012.62 1012.61 1012.65 1012.76 1012.94 1013.18 1013.42 1013.63 1013.76 1013.82 1013.80 1013.75 1013.72 1013.75 1013.89 1014.14 1014.47 1014.87 1015.27 1015.65 1015.99 1016.26 1016.48 1016.66
1008.90 1009.29 1009.81 1010.41 1010.99 1011.48 1011.81 1011.99 1012.04 1012.01 1011.97 1011.98 1012.07 1012.22 1012.41 1012.59 1012.73 1012.80 1012.81 1012.79 1012.79 1012.85 1012.98 1013.18 1013.42 1013.66 1013.83 1013.92 1013.90 1013.82 1013.70 1013.61 1013.60 1013.71 1013.93 1014.25 1014.62 1015.01 1015.38 1015.69 1015.96 1016.19 1016.41
1009.21 1009.64 1010.17 1010.74 1011.26 1011.67 1011.93 1012.04 1012.04 1011.99 1011.95 1011.99 1012.09 1012.27 1012.47 1012.65 1012.78 1012.84 1012.84 1012.83 1012.84 1012.91 1013.07 1013.28 1013.53 1013.75 1013.89 1013.93 1013.86 1013.72 1013.55 1013.42 1013.38 1013.47 1013.68 1013.99 1014.36 1014.73 1015.08 1015.38 1015.64 1015.87 1016.10
1009.60 1010.04 1010.54 1011.05 1011.49 1011.80 1011.96 1011.99 1011.94 1011.86 1011.82 1011.86 1011.98 1012.16 1012.36 1012.53 1012.65 1012.69 1012.69 1012.67 1012.70 1012.79 1012.97 1013.20 1013.45 1013.66 1013.78 1013.79 1013.69 1013.51 1013.32 1013.18 1013.13 1013.22 1013.44 1013.75 1014.11 1014.48 1014.81 1015.09 1015.33 1015.55 1015.78
1009.96 1010.37 1010.83 1011.26 1011.60 1011.82 1011.89 1011.85 1011.75 1011.64 1011.59 1011.63 1011.75 1011.92 1012.11 1012.26 1012.35 1012.38 1012.36 1012.35 1012.38 1012.49 1012.68 1012.93 1013.18 1013.39 1013.51 1013.51 1013.40 1013.22 1013.03 1012.90 1012.87 1012.97 1013.21 1013.53 1013.90 1014.26 1014.58 1014.85 1015.07 1015.27 1015.48
1010.17 1010.55 1010.95 1011.30 1011.56 1011.69 1011.70 1011.61 1011.48 1011.36 1011.31 1011.35 1011.46 1011.62 1011.78 1011.90 1011.96 1011.96 1011.93 1011.91 1011.95 1012.06 1012.25 1012.51 1012.77 1012.98 1013.10 1013.11 1013.01 1012.86 1012.70 1012.60 1012.60 1012.74 1013.00 1013.34 1013.72 1014.09 1014.40 1014.66 1014.86 1015.04 1015.22
1010.18 1010.52 1010.86 1011.15 1011.35 1011.43 1011.41 1011.31 1011.18 1011.08 1011.03 1011.07 1011.17 1011.31 1011.44 1011.53 1011.56 1011.53 1011.48 1011.45 1011.48 1011.58 1011.77 1012.02 1012.27 1012.49 1012.61 1012.64 1012.58 1012.46 1012.34 1012.29 1012.33 1012.50 1012.78 1013.15 1013.54 1013.92 1014.24 1014.50 1014.70 1014.86 1015.01
1010.01 1010.30 1010.59 1010.84 1011.01 1011.08 1011.07 1010.99 1010.89 1010.82 1010.80 1010.84 1010.94 1011.05 1011.15 1011.21 1011.21 1011.17 1011.10 1011.05 1011.06 1011.15 1011.32 1011.54 1011.78 1011.98 1012.11 1012.16 1012.13 1012.05 1011.98 1011.96 1012.04 1012.23 1012.53 1012.91 1013.31 1013.71 1014.05 1014.33 1014.54 1014.70 1014.84
1009.69 1009.95 1010.21 1010.44 1010.61 1010.71 1010.73 1010.71 1010.66 1010.63 1010.64 1010.69 1010.78 1010.87 1010.95 1010.99 1010.97 1010.91 1010.84 1010.78 1010.78 1010.84 1010.97 1011.16 1011.36 1011.53 1011.65 1011.70 1011.69 1011.64 1011.60 1011.61 1011.70 1011.91 1012.21 1012.58 1012.99 1013.40 1013.77 1014.08 1014.32 1014.52 1014.67
1009.32 1009.55 1009.80 1010.03 1010.23 1010.37 1010.46 1010.50 1010.51 1010.52 1010.55 1010.61 1010.68 1010.76 1010.82 1010.84 1010.82 1010.77 1010.71 1010.65 1010.64 1010.67 1010.77 1010.90 1011.05 1011.18 1011.27 1011.31 1011.30 1011.26 1011.23 1011.24 1011.33 1011.52 1011.80 1012.15 1012.55 1012.97 1013.36 1013.71 1014.01 1014.25 1014.45
1008.96 1009.18 1009.43 1009.68 1009.92 1010.12 1010.27 1010.37 1010.43 1010.47 1010.51 1010.55 1010.60 1010.66 1010.70 1010.72 1010.72 1010.69 1010.66 1010.62 1010.61 1010.63 1010.69 1010.77 1010.86 1010.94 1010.99 1011.00 1010.98 1010.94 1010.90 1010.90 1010.96 1011.11 1011.34 1011.64 1012.01 1012.41 1012.81 1013.20 1013.55 1013.86 1014.12
1008.65 1008.88 1009.14 1009.42 1009.70 1009.95 1010.15 1010.30 1010.39 1010.44 1010.46 1010.48 1010.49 1010.51 1010.54 1010.57 1010.59 1010.61 1010.62 1010.63 1010.64 1010.66 1010.70 1010.74 1010.78 1010.81 1010.82 1010.80 1010.76 1010.71 1010.66 1010.63 1010.65 1010.73 1010.88 1011.12 1011.42 1011.77 1012.16 1012.57 1012.97 1013.33 1013.66
1008.37 1008.62 1008.91 1009.23 1009.54 1009.84 1010.08 1010.25 1010.35 1010.39 1010.38 1010.34 1010.30 1010.28 1010.29 1010.33 1010.39 1010.46 1010.53 1010.60 1010.66 1010.71 1010.74 1010.76 1010.77 1010.77 1010.75 1010.72 1010.66 1010.60 1010.53 1010.48 1010.44 1010.45 1010.52 1010.65 1010.86 1011.14 1011.48 1011.87 1012.28 1012.69 1013.07
1008.07 1008.35 1008.67 1009.03 1009.38 1009.71 1009.99 1010.18 1010.28 1010.28 1010.22 1010.13 1010.03 1009.96 1009.95 1009.99 1010.08 1010.21 1010.36 1010.51 1010.63 1010.72 1010.78 1010.80 1010.81 1010.79 1010.77 1010.73 1010.69 1010.63 1010.56 1010.48 1010.40 1010.34 1010.31 1010.33 1010.42 1010.59 1010.85 1011.18 1011.56 1011.98 1012.38
1007.67 1007.99 1008.35 1008.74 1009.14 1009.51 1009.82 1010.02 1010.12 1010.10 1010.00 1009.85 1009.69 1009.58 1009.54 1009.58 1009.70 1009.88 1010.10 1010.32 1010.51 1010.66 1010.76 1010.82 1010.84 1010.84 1010.84 1010.83 1010.81 1010.78 1010.73 1010.65 1010.54 1010.41 1010.28 1010.19 1010.15 1010.19 1010.32 1010.55 1010.87 1011.24 1011.64
1007.11 1007.47 1007.87 1008.30 1008.75 1009.16 1009.51 1009.75 1009.87 1009.85 1009.72 1009.54 1009.34 1009.18 1009.11 1009.14 1009.28 1009.50 1009.77 1010.05 1010.31 1010.52 1010.67 1010.77 1010.83 1010.87 1010.91 1010.95 1010.98 1011.00 1010.98 1010.91 1010.79 1010.62 1010.42 1010.22 1010.05 1009.95 1009.94 1010.04 1010.25 1010.55 1010.90
1006.35 1006.74 1007.18 1007.66 1008.16 1008.64 1009.05 1009.36 1009.52 1009.53 1009.42 1009.22 1009.00 1008.82 1008.72 1008.73 1008.87 1009.10 1009.40 1009.72 1010.02 1010.28 1010.48 1010.63 1010.74 1010.83 1010.92 1011.01 1011.11 1011.18 1011.22 1011.19 1011.08 1010.89 1010.64 1010.35 1010.07 1009.84 1009.69 1009.65 1009.73 1009.92 1010.19
1005.43 1005.84 1006.31 1006.84 1007.40 1007.95 1008.44 1008.83 1009.07 1009.16 1009.10 1008.93 1008.72 1008.52 1008.40 1008.39 1008.50 1008.72 1009.02 1009.34 1009.66 1009.95 1010.18 1010.36 1010.51 1010.65 1010.79 1010.94 1011.10 1011.24 1011.33 1011.35 1011.28 1011.10 1010.83 1010.49 1010.13 1009.79 1009.52 1009.35 1009.30 1009.37 1009.55
1004.45 1004.86 1005.34 1005.90 1006.51 1007.14 1007.72 1008.21 1008.56 1008.74 1008.76 1008.65 1008.48 1008.29 1008.15 1008.11 1008.18 1008.36 1008.62 1008.93 1009.23 1009.51 1009.75 1009.95 1010.13 1010.30 1010.48 1010.68 1010.89 1011.08 1011.23 1011.31 1011.28 1011.13 1010.87 1010.53 1010.13 1009.73 1009.38 1009.11 1008.95 1008.91 1008.99
1003.54 1003.92 1004.38 1004.95 1005.59 1006.28 1006.95 1007.54 1008.00 1008.29 1008.41 1008.37 1008.24 1008.08 1007.93 1007.86 1007.88 1008.00 1008.20 1008.45 1008.72 1008.98 1009.21 1009.41 1009.60 1009.78 1009.99 1010.22 1010.46 1010.70 1010.89 1011.02 1011.04 1010.94 1010.72 1010.40 1010.02 1009.60 1009.21 1008.88 1008.64 1008.52 1008.51
Thickness
5816 5815 5811 5808 5807 5804 5803 5802 5800 5799 5798 5796 5795 5793 5791 5790 5789 5787 5786 5785 5783 5782 5780 5779 5777 5776 5774 5773 5772 5772 5770 5769 5768 5766 5765 5764 5763 5762 5761 5760 5759 5758 5757
5820 5816 5811 5808 5806 5804 5802 5801 5799 5798 5797 5795 5794 5792 5791 5789 5788 5786 5785 5784 5783 5781 5779 5778 5776 5775 5773 5772 5771 5770 5769 5768 5767 5765 5764 5763 5761 5760 5760 5758 5757 5756 5755
5821 5815 5811 5808 5806 5803 5801 5800 5798 5797 5796 5794 5793 5791 5790 5788 5787 5785 5784 5783 5782 5780 5778 5776 5775 5774 5772 5771 5770 5769 5768 5767 5766 5765 5764 5762 5761 5759 5758 5757 5755 5754 5753
5823 5817 5812 5807 5805 5803 5800 5799 5797 5796 5794 5793 5792 5790 5789 5787 5786 5785 5784 5783 5781 5779 5777 5776 5774 5773 5772 5770 5769 5768 5767 5766 5765 5764 5763 5763 5762 5759 5757 5755 5754 5752 5751
5824 5818 5811 5807 5804 5802 5800 5798 5796 5794 5793 5792 5791 5790 5788 5787 5785 5784 5783 5781 5779 5778 5776 5774 5773 5772 5770 5769 5768 5767 5766 5765 5765 5764 5764 5762 5761 5758 5756 5754 5753 5751 5750
5824 5818 5810 5807 5804 5801 5799 5797 5795 5793 5791 5790 5790 5789 5788 5786 5784 5783 5781 5779 5778 5777 5775 5773 5772 5770 5769 5768 5767 5767 5766 5765 5764 5764 5763 5762 5759 5757 5755 5753 5751 5750 5749
5824 5818 5811 5807 5803 5801 5799 5797 5794 5792 5791 5789 5788 5788 5787 5785 5783 5781 5780 5778 5777 5775 5774 5772 5771 5769 5768 5767 5767 5766 5765 5765 5763 5763 5763 5761 5758 5756 5754 5752 5751 5749 5748
5826 5819 5811 5807 5804 5801 5799 5796 5794 5792 5790 5788 5787 5788 5787 5784 5782 5781 5779 5778 5776 5775 5773 5771 5770 5768 5767 5767 5766 5766 5765 5764 5764 5764 5762 5760 5757 5755 5754 5752 5751 5749 5747
5827 5820 5813 5809 5805 5801 5799 5796 5794 5792 5790 5788 5786 5786 5785 5783 5782 5780 5778 5777 5776 5774 5773 5771 5769 5768 5767 5766 5766 5765 5764 5763 5763 5763 5762 5759 5757 5755 5754 5752 5751 5749 5747
5826 5821 5816 5812 5808 5803 5799 5796 5794 5792 5790 5787 5786 5785 5785 5783 5782 5780 5778 5777 5776 5774 5773 5771 5769 5768 5767 5766 5765 5765 5765 5763 5763 5763 5761 5759 5757 5755 5753 5752 5750 5749 5747
5822 5820 5818 5814 5810 5807 5802 5798 5795 5792 5790 5788 5787 5786 5785 5784 5783 5781 5779 5777 5776 5775 5773 5771 5770 5768 5767 5767 5766 5766 5765 5764 5764 5763 5761 5759 5757 5755 5754 5752 5750 5749 5747
5818 5819 5818 5815 5811 5808 5805 5800 5797 5795 5792 5790 5789 5787 5786 5785 5784 5783 5780 5778 5777 5775 5773 5772 5771 5769 5768 5768 5768 5766 5766 5766 5766 5765 5762 5760 5758 5756 5754 5752 5751 5749 5748
5821 5819 5818 5816 5812 5809 5805 5802 5799 5797 5794 5792 5790 5789 5787 5786 5785 5783 5781 5779 5777 5776 5774 5773 5771 5770 5770 5770 5769 5768 5768 5767 5767 5765 5763 5761 5759 5757 5755 5753 5751 5750 5748
5822 5819 5819 5817 5812 5809 5806 5803 5801 5799 5796 5793 5791 5790 5789 5787 5786 5785 5783 5781 5779 5777 5776 5775 5773 5773 5772 5771 5771 5770 5769 5768 5767 5765 5763 5761 5759 5758 5756 5754 5752 5750 5748
5821 5820 5818 5816 5812 5809 5806 5804 5802 5800 5798 5795 5793 5791 5790 5788 5787 5786 5784 5783 5781 5779 5777 5776 5775 5774 5773 5772 5772 5771 5770 5770 5768 5767 5764 5762 5760 5758 5757 5755 5753 5751 5749
5822 5820 5819 5816 5813 5809 5806 5804 5802 5801 5798 5797 5795 5793 5792 5790 5788 5786 5784 5783 5782 5780 5778 5777 5776 5775 5774 5774 5773 5772 5771 5770 5769 5768 5765 5763 5761 5759 5757 5755 5753 5752 5750
5824 5822 5819 5817 5813 5809 5807 5805 5803 5802 5800 5798 5796 5794 5793 5791 5789 5787 5785 5783 5782 5781 5779 5777 5777 5776 5774 5774 5773 5773 5772 5771 5770 5768 5766 5764 5761 5759 5757 5756 5754 5752 5750
5826 5822 5820 5819 5814 5810 5807 5806 5804 5803 5802 5799 5797 5795 5793 5792 5790 5789 5786 5784 5784 5782 5779 5777 5776 5774 5773 5773 5772 5773 5773 5772 5771 5769 5767 5765 5762 5761 5758 5756 5754 5752 5750
5827 5823 5819 5818 5814 5811 5808 5806 5804 5803 5801 5799 5797 5795 5793 5792 5791 5789 5787 5786 5784 5782 5780 5779 5776 5774 5771 5771 5772 5772 5773 5772 5771 5770 5768 5766 5764 5762 5759 5757 5755 5752 5750
5828 5824 5820 5817 5814 5812 5809 5806 5803 5802 5800 5799 5797 5795 5793 5792 5791 5789 5788 5786 5785 5781 5779 5777 5776 5775 5773 5772 5772 5772 5772 5773 5771 5770 5769 5768 5766 5764 5761 5758 5755 5752 5751
5828 5823 5819 5816 5813 5811 5807 5803 5800 5798 5798 5797 5797 5795 5794 5792 5791 5789 5788 5786 5784 5781 5779 5778 5776 5773 5772 5772 5767 5765 5769 5772 5771 5770 5769 5767 5766 5765 5763 5759 5756 5753 5751
5826 5823 5819 5815 5813 5810 5808 5805 5803 5801 5799 5799 5798 5796 5794 5792 5791 5790 5787 5785 5783 5780 5778 5777 5775 5771 5771 5771 5764 5758 5756 5760 5766 5770 5768 5766 5765 5764 5763 5761 5758 5755 5752
5826 5823 5820 5816 5813 5810 5809 5807 5804 5800 5798 5796 5794 5793 5793 5792 5791 5789 5787 5785 5783 5781 5777 5775 5774 5770 5767 5768 5768 5760 5752 5749 5756 5763 5764 5764 5763 5761 5761 5760 5757 5755 5752
5828 5826 5821 5816 5813 5810 5808 5805 5800 5795 5791 5792 5793 5793 5792 5792 5790 5789 5787 5784 5782 5780 5777 5775 5774 5772 5768 5764 5765 5765 5762 5759 5751 5750 5756 5761 5761 5759 5758 5759 5757 5755 5751
5831 5826 5821 5816 5812 5810 5807 5804 5799 5796 5794 5794 5793 5792 5791 5791 5790 5788 5786 5783 5781 5779 5777 5775 5773 5771 5768 5765 5763 5762 5760 5759 5757 5749 5746 5751 5754 5756 5756 5756 5755 5754 5752
5832 5827 5822 5815 5810 5809 5806 5803 5799 5795 5793 5791 5790 5788 5788 5788 5788 5787 5785 5782 5780 5778 5776 5774 5772 5770 5767 5765 5763 5761 5758 5755 5753 5750 5745 5745 5746 5750 5754 5754 5754 5752 5751